Météo par heure à Cordoba

Ce jour, 1 Octobre, Jeudi

Heure Température Précipitation Vent Pression Humidité
00:00 +17°C° 0 mm 6 m/s 718 mmHg 44%
01:00 +16°C° 0 mm 6 m/s 719 mmHg 44%
02:00 +15°C° 0 mm 7 m/s 719 mmHg 43%
03:00 +15°C° 0 mm 6 m/s 719 mmHg 41%
04:00 +14°C° 0 mm 6 m/s 719 mmHg 39%
05:00 +13°C° 0 mm 5 m/s 719 mmHg 37%
06:00 +14°C° 0 mm 6 m/s 720 mmHg 33%
07:00 +15°C° 0 mm 6 m/s 721 mmHg 29%
08:00 +15°C° 0 mm 6 m/s 722 mmHg 25%
09:00 +16°C° 0 mm 6 m/s 722 mmHg 23%
10:00 +17°C° 0 mm 5 m/s 722 mmHg 22%
11:00 +19°C° 0 mm 5 m/s 722 mmHg 20%
12:00 +21°C° 0 mm 5 m/s 721 mmHg 19%
13:00 +22°C° 0 mm 5 m/s 720 mmHg 18%
14:00 +23°C° 0 mm 5 m/s 720 mmHg 17%
15:00 +22°C° 0 mm 5 m/s 720 mmHg 18%
16:00 +22°C° 0 mm 5 m/s 719 mmHg 18%
17:00 +21°C° 0 mm 5 m/s 719 mmHg 19%
18:00 +19°C° 0 mm 4 m/s 720 mmHg 22%
19:00 +17°C° 0 mm 4 m/s 721 mmHg 25%
20:00 +14°C° 0 mm 3 m/s 722 mmHg 28%
21:00 +13°C° 0 mm 3 m/s 722 mmHg 30%
22:00 +13°C° 0 mm 3 m/s 722 mmHg 32%
23:00 +12°C° 0 mm 3 m/s 723 mmHg 33%

Demain, 2 Octobre, Vendredi

Heure Température Précipitation Vent Pression Humidité
00:00 +12°C° 0 mm 3 m/s 723 mmHg 34%
01:00 +12°C° 0 mm 2 m/s 722 mmHg 35%
02:00 +12°C° 0 mm 2 m/s 722 mmHg 36%
03:00 +10°C° 0 mm 2 m/s 723 mmHg 37%
04:00 +10°C° 0 mm 2 m/s 723 mmHg 37%
05:00 +10°C° 0 mm 2 m/s 724 mmHg 37%
06:00 +13°C° 0 mm 2 m/s 724 mmHg 35%
07:00 +14°C° 0 mm 2 m/s 725 mmHg 34%
08:00 +16°C° 0 mm 2 m/s 725 mmHg 32%
09:00 +17°C° 0 mm 2 m/s 725 mmHg 30%
10:00 +19°C° 0 mm 2 m/s 725 mmHg 28%
11:00 +20°C° 0 mm 3 m/s 725 mmHg 26%
12:00 +21°C° 0 mm 3 m/s 725 mmHg 26%
13:00 +22°C° 0 mm 4 m/s 724 mmHg 26%
14:00 +23°C° 0 mm 5 m/s 724 mmHg 26%
15:00 +23°C° 0 mm 5 m/s 724 mmHg 29%
16:00 +22°C° 0 mm 6 m/s 724 mmHg 32%
17:00 +22°C° 0 mm 6 m/s 724 mmHg 35%
18:00 +20°C° 0 mm 6 m/s 725 mmHg 38%
19:00 +19°C° 0 mm 6 m/s 726 mmHg 42%
20:00 +17°C° 0 mm 6 m/s 728 mmHg 45%
21:00 +16°C° 0 mm 6 m/s 728 mmHg 47%
22:00 +15°C° 0 mm 5 m/s 729 mmHg 49%
23:00 +13°C° 0 mm 5 m/s 729 mmHg 51%

Après-demain, 3 Octobre, Samedi

Heure Température Précipitation Vent Pression Humidité
00:00 +12°C° 0 mm 5 m/s 729 mmHg 53%
01:00 +12°C° 0 mm 4 m/s 729 mmHg 55%
02:00 +11°C° 0 mm 4 m/s 729 mmHg 57%
03:00 +10°C° 0 mm 4 m/s 730 mmHg 56%
04:00 +10°C° 0 mm 4 m/s 730 mmHg 55%
05:00 +9°C° 0 mm 3 m/s 730 mmHg 54%
06:00 +9°C° 0 mm 3 m/s 731 mmHg 51%
07:00 +9°C° 0 mm 3 m/s 731 mmHg 48%
08:00 +9°C° 0 mm 3 m/s 731 mmHg 45%
09:00 +10°C° 0 mm 3 m/s 731 mmHg 43%
10:00 +10°C° 0 mm 3 m/s 731 mmHg 41%
11:00 +11°C° 0 mm 3 m/s 731 mmHg 39%
12:00 +11°C° 0 mm 3 m/s 731 mmHg 38%
13:00 +12°C° 0 mm 3 m/s 730 mmHg 37%
14:00 +12°C° 0 mm 3 m/s 730 mmHg 37%
15:00 +11°C° 0 mm 4 m/s 729 mmHg 39%
16:00 +11°C° 0 mm 4 m/s 729 mmHg 41%
17:00 +10°C° 0 mm 4 m/s 729 mmHg 44%
18:00 +10°C° 0 mm 3 m/s 729 mmHg 47%
19:00 +9°C° 0 mm 2 m/s 729 mmHg 49%
20:00 +9°C° 0 mm 2 m/s 730 mmHg 52%
21:00 +9°C° 0 mm 2 m/s 730 mmHg 53%
22:00 +10°C° 0 mm 1 m/s 730 mmHg 54%
23:00 +10°C° 0 mm 1 m/s 730 mmHg 55%

4 Octobre, Dimanche

Heure Température Précipitation Vent Pression Humidité
00:00 +9°C° 0 mm 1 m/s 729 mmHg 56%
01:00 +9°C° 0 mm 1 m/s 729 mmHg 58%
02:00 +9°C° 0 mm 1 m/s 728 mmHg 59%
03:00 +9°C° 0 mm 1 m/s 728 mmHg 61%
04:00 +9°C° 0 mm 1 m/s 728 mmHg 64%
05:00 +8°C° 0 mm 0 m/s 727 mmHg 67%
06:00 +9°C° 0.1 mm 1 m/s 727 mmHg 68%
07:00 +9°C° 0.1 mm 1 m/s 727 mmHg 70%
08:00 +9°C° 0.1 mm 1 m/s 727 mmHg 72%
09:00 +10°C° 0 mm 1 m/s 727 mmHg 73%
10:00 +10°C° 0 mm 1 m/s 726 mmHg 74%
11:00 +11°C° 0 mm 1 m/s 726 mmHg 75%
12:00 +10°C° 0 mm 2 m/s 725 mmHg 73%
13:00 +12°C° 0 mm 2 m/s 724 mmHg 71%
14:00 +13°C° 0 mm 2 m/s 723 mmHg 70%
15:00 +14°C° 0 mm 2 m/s 723 mmHg 69%
16:00 +14°C° 0 mm 2 m/s 723 mmHg 69%
17:00 +14°C° 0 mm 2 m/s 722 mmHg 68%
18:00 +14°C° 0 mm 2 m/s 723 mmHg 70%
19:00 +13°C° 0 mm 1 m/s 724 mmHg 73%
20:00 +13°C° 0 mm 1 m/s 724 mmHg 75%
21:00 +12°C° 0 mm 1 m/s 725 mmHg 78%
22:00 +11°C° 0 mm 1 m/s 725 mmHg 82%
23:00 +10°C° 0 mm 1 m/s 725 mmHg 85%

5 Octobre, Lundi

Heure Température Précipitation Vent Pression Humidité
00:00 +10°C° 0 mm 1 m/s 725 mmHg 85%
01:00 +9°C° 0 mm 2 m/s 725 mmHg 84%
02:00 +9°C° 0 mm 2 m/s 725 mmHg 84%
03:00 +9°C° 0 mm 2 m/s 725 mmHg 85%
04:00 +8°C° 0 mm 2 m/s 725 mmHg 87%
05:00 +8°C° 0 mm 2 m/s 725 mmHg 89%
06:00 +9°C° 0 mm 2 m/s 726 mmHg 80%
07:00 +12°C° 0 mm 2 m/s 726 mmHg 71%
08:00 +13°C° 0 mm 2 m/s 727 mmHg 62%
09:00 +16°C° 0 mm 2 m/s 727 mmHg 48%
10:00 +18°C° 0 mm 3 m/s 726 mmHg 35%
11:00 +20°C° 0 mm 3 m/s 726 mmHg 21%
12:00 +21°C° 0 mm 3 m/s 725 mmHg 19%
13:00 +22°C° 0 mm 3 m/s 725 mmHg 17%
14:00 +24°C° 0 mm 2 m/s 724 mmHg 15%
15:00 +24°C° 0 mm 2 m/s 723 mmHg 15%
16:00 +24°C° 0 mm 2 m/s 723 mmHg 15%
17:00 +24°C° 0 mm 2 m/s 722 mmHg 15%
18:00 +20°C° 0 mm 2 m/s 722 mmHg 19%
19:00 +18°C° 0 mm 2 m/s 722 mmHg 22%
20:00 +16°C° 0 mm 2 m/s 722 mmHg 26%
21:00 +15°C° 0 mm 1 m/s 722 mmHg 29%
22:00 +14°C° 0 mm 1 m/s 723 mmHg 32%
23:00 +13°C° 0 mm 1 m/s 723 mmHg 35%

6 Octobre, Mardi

Heure Température Précipitation Vent Pression Humidité
00:00 +13°C° 0 mm 1 m/s 722 mmHg 37%
01:00 +12°C° 0 mm 1 m/s 722 mmHg 39%
02:00 +12°C° 0 mm 2 m/s 722 mmHg 42%
03:00 +11°C° 0 mm 1 m/s 722 mmHg 46%
04:00 +11°C° 0 mm 1 m/s 722 mmHg 50%
05:00 +11°C° 0 mm 1 m/s 721 mmHg 54%
06:00 +12°C° 0 mm 2 m/s 722 mmHg 52%
07:00 +14°C° 0 mm 2 m/s 722 mmHg 50%
08:00 +14°C° 0 mm 3 m/s 722 mmHg 48%
09:00 +18°C° 0 mm 3 m/s 722 mmHg 42%
10:00 +20°C° 0 mm 3 m/s 722 mmHg 37%
11:00 +22°C° 0 mm 4 m/s 722 mmHg 31%
12:00 +25°C° 0 mm 4 m/s 721 mmHg 30%
13:00 +26°C° 0 mm 4 m/s 721 mmHg 28%
14:00 +27°C° 0 mm 4 m/s 720 mmHg 26%
15:00 +27°C° 0 mm 4 m/s 720 mmHg 27%
16:00 +27°C° 0 mm 5 m/s 719 mmHg 27%
17:00 +26°C° 0 mm 5 m/s 719 mmHg 28%
18:00 +23°C° 0 mm 4 m/s 719 mmHg 34%
19:00 +21°C° 0 mm 3 m/s 720 mmHg 39%
20:00 +18°C° 0 mm 3 m/s 720 mmHg 44%
21:00 +18°C° 0 mm 2 m/s 721 mmHg 45%
22:00 +17°C° 0 mm 2 m/s 721 mmHg 46%
23:00 +18°C° 0 mm 1 m/s 721 mmHg 47%
Voir plus

We Need Your Consent

Meteoprog and our Service Providers may store and access personal data such as cookies, device identifiers or other similar technologies on your device and process such data to personalise content and ads, as well as provide social media features and to analyse the traffic.

  • Store and/or access information on your device

    Cookies, device identifiers or other information can be stored or accessed on your device for the purposes indicated above.

  • Personalised ads and content, ad and content measurement, audience insights, and products development

    Ads and content can be personalised based on a profile. More data can be added to better personalise ads and content. Ad and content performance can be measured. Insights about the audience who saw the ads and content can be derived. Such data can be used to develop or improve user’s experience, systems and software.

By clicking ‘I Agree’ you will allow the use of indicated cookies, device identifiers, web beacons or other similar technologies. Your settings can be changed in the browser on your device.

For certain purposes, legitimate interests may be relied on, rather than consent. You can read more about this in our Privacy and Cookie Policy.